WetterOnline ( https://www.wetteronline.ch )

Wetter aktuell Kassel

Aktuelles Wetter: Schauenburg-Elgershausen (317m)

6-stündlich | Neueste Meldungen
Ortszeit Temperatur Wetter
Fr, 20.09. 2:00 5.4° C wolkig
Do, 19.09. 20:00 8.9° C wolkig
Do, 19.09. 14:00 13.0° C wolkig
Do, 19.09. 8:00 5.3° C wolkig
Do, 19.09. 2:00 6.6° C wolkig
Mi, 18.09. 20:00 9.6° C wolkenlos
Mi, 18.09. 14:00 12.9° C wolkig
Mi, 18.09. 8:00 7.0° C leicht bewölkt
Ortszeit Temperatur Wetter
Fr, 20.09. 3:00 5.1° C leicht bewölkt
Fr, 20.09. 2:50 5.1° C leicht bewölkt
Fr, 20.09. 2:40 5.0° C fast wolkenlos
Fr, 20.09. 2:30 4.3° C leicht bewölkt
Fr, 20.09. 2:20 4.3° C leicht bewölkt
Fr, 20.09. 2:10 4.9° C wolkig
Fr, 20.09. 2:00 5.4° C wolkig
Fr, 20.09. 1:30 6.1° C wolkig
Fr, 20.09. 1:00 6.5° C wolkig
Fr, 20.09. 0:30 6.7° C fast wolkenlos
Fr, 20.09. 0:00 6.5° C leicht bewölkt
Ortszeit Relative Feuchte Sichtweite
Fr, 20.09. 2:00 82% 55 km
Do, 19.09. 20:00 65% 55 km
Do, 19.09. 14:00 45% 45 km
Do, 19.09. 8:00 91% 35 km
Do, 19.09. 2:00 87% 50 km
Mi, 18.09. 20:00 70% 45 km
Mi, 18.09. 14:00 52% 50 km
Mi, 18.09. 8:00 88% 26 km
Ortszeit Relative Feuchte Sichtweite
Fr, 20.09. 3:00 83% 50 km
Fr, 20.09. 2:50 83% -
Fr, 20.09. 2:40 83% -
Fr, 20.09. 2:30 85% 50 km
Fr, 20.09. 2:20 85% -
Fr, 20.09. 2:10 83% -
Fr, 20.09. 2:00 82% 55 km
Fr, 20.09. 1:30 75% 45 km
Fr, 20.09. 1:00 76% 45 km
Fr, 20.09. 0:30 74% 55 km
Fr, 20.09. 0:00 76% 55 km
Ortszeit Niederschlagsmenge Niederschlagsart
Fr, 20.09. 2:00 0.0 l/m2 in 6 Std. -
Do, 19.09. 20:00 0.0 l/m2 in 12 Std. -
Do, 19.09. 14:00 0.0 l/m2 in 6 Std. -
Do, 19.09. 8:00 0.0 l/m2 in 12 Std. -
Do, 19.09. 2:00 0.0 l/m2 in 6 Std. -
Mi, 18.09. 20:00 0.0 l/m2 in 12 Std. -
Mi, 18.09. 14:00 0.0 l/m2 in 6 Std. -
Mi, 18.09. 8:00 0.0 l/m2 in 12 Std. -
Ortszeit Niederschlagsmenge Niederschlagsart
Fr, 20.09. 3:00 0.0 l/m2 in 1 Std. -
Fr, 20.09. 2:50 keine Meldung -
Fr, 20.09. 2:40 keine Meldung -
Fr, 20.09. 2:30 0.0 l/m2 in 1 Std. -
Fr, 20.09. 2:20 keine Meldung -
Fr, 20.09. 2:10 keine Meldung -
Fr, 20.09. 2:00 0.0 l/m2 in 1 Std. -
Fr, 20.09. 1:30 0.0 l/m2 in 1 Std. -
Fr, 20.09. 1:00 0.0 l/m2 in 1 Std. -
Fr, 20.09. 0:30 0.0 l/m2 in 1 Std. -
Fr, 20.09. 0:00 0.0 l/m2 in 1 Std. -
Ortszeit Stärke Spitze Richtung
km/h Bft. km/h Grad Sektor
Fr, 20.09. 2:00 0 0 14 - -
Do, 19.09. 20:00 6 1 28 330° NW
Do, 19.09. 14:00 11 2 25 340° N
Do, 19.09. 8:00 11 2 14 310° NW
Do, 19.09. 2:00 7 2 19 310° NW
Mi, 18.09. 20:00 7 2 32 320° NW
Mi, 18.09. 14:00 18 3 32 300° NW
Mi, 18.09. 8:00 9 2 30 280° W
Ortszeit Stärke Spitze Richtung
km/h Bft. km/h Grad Sektor
Fr, 20.09. 3:00 4 1 7 310° NW
Fr, 20.09. 2:50 4 1 - 310° NW
Fr, 20.09. 2:40 4 1 - 360° N
Fr, 20.09. 2:30 4 1 7 360° N
Fr, 20.09. 2:20 4 1 - 360° N
Fr, 20.09. 2:10 4 1 - 340° N
Fr, 20.09. 2:00 0 0 7 - -
Fr, 20.09. 1:30 4 1 7 320° NW
Fr, 20.09. 1:00 4 1 7 350° N
Fr, 20.09. 0:30 4 1 7 350° N
Fr, 20.09. 0:00 4 1 14 310° NW
Ortszeit Untergrenze Bedeckung Gattung
total tief tief mittel hoch
Fr, 20.09. 2:00 9000 m 8/8 0/8 - - -
Do, 19.09. 20:00 10500 m 7/8 0/8 - - -
Do, 19.09. 14:00 1350 m 6/8 5/8 - - -
Do, 19.09. 8:00 1320 m 7/8 2/8 - - -
Do, 19.09. 2:00 9000 m 8/8 0/8 - - -
Mi, 18.09. 20:00 - 0/8 0/8 - - -
Mi, 18.09. 14:00 1500 m 5/8 5/8 - - -
Mi, 18.09. 8:00 1320 m 4/8 2/8 - - -
Ortszeit Bedeckungsgrad in Achtel und Wolkenuntergrenze
Fr, 20.09. 3:00 1(9000m) 4(10500m)
Fr, 20.09. 2:50 1(9000m) 4(10500m) 4(12000m)
Fr, 20.09. 2:40 1(10500m)
Fr, 20.09. 2:30 2(9000m) 4(10500m) 5(12000m)
Fr, 20.09. 2:20 2(9000m) 4(10500m) 5(12000m)
Fr, 20.09. 2:10 3(9000m) 5(10500m) 7(10500m)
Fr, 20.09. 2:00 7(9000m) 8(10500m)
Fr, 20.09. 1:30 8(9000m) 8(10500m) 8(12000m)
Fr, 20.09. 1:00 7(10500m) 8(12000m)
Fr, 20.09. 0:30 1(10500m)
Fr, 20.09. 0:00 3(12000m) 3(12000m)
Ortszeit Luftdruck NN (hPa) Tendenz (hPa in 3 Std.)
Fr, 20.09. 2:00 1032 - 0,2
Do, 19.09. 20:00 1030 + 0,4
Do, 19.09. 14:00 1030 0,0
Do, 19.09. 8:00 1030 + 0,8
Do, 19.09. 2:00 1029 + 0,7
Mi, 18.09. 20:00 1026 + 0,2
Mi, 18.09. 14:00 1026 - 0,3
Mi, 18.09. 8:00 1026 + 1,0
Ortszeit Luftdruck NN (hPa) Tendenz (hPa in 3 Std.)
Fr, 20.09. 3:00 1031 - 0,7
Fr, 20.09. 2:50 1031 keine Meldung
Fr, 20.09. 2:40 1031 keine Meldung
Fr, 20.09. 2:30 1032 - 0,5
Fr, 20.09. 2:20 1032 keine Meldung
Fr, 20.09. 2:10 1032 keine Meldung
Fr, 20.09. 2:00 1032 - 0,2
Fr, 20.09. 1:30 1031 0,0
Fr, 20.09. 1:00 1031 0,0
Fr, 20.09. 0:30 1032 + 0,2
Fr, 20.09. 0:00 1032 + 0,6
Ortszeit Schneehöhe (cm)
Fr, 20.09. 2:00 -
Do, 19.09. 20:00 -
Do, 19.09. 14:00 -
Do, 19.09. 8:00 -
Do, 19.09. 2:00 -
Mi, 18.09. 20:00 -
Mi, 18.09. 14:00 -
Mi, 18.09. 8:00 -
Ortszeit Schneehöhe (cm)
Fr, 20.09. 3:00 -
Fr, 20.09. 2:50 -
Fr, 20.09. 2:40 -
Fr, 20.09. 2:30 -
Fr, 20.09. 2:20 -
Fr, 20.09. 2:10 -
Fr, 20.09. 2:00 -
Fr, 20.09. 1:30 -
Fr, 20.09. 1:00 -
Fr, 20.09. 0:30 -
Fr, 20.09. 0:00 -
Link zu dieser Seite / Seite empfehlen

Das Wetter in ...